Volver al catálogo

CZ-6A Y12 STAGE 2

ActivoPO
NORAD 65549·ROCKET BODY·🇨🇳 China
Este nombre de satélite aún no ha sido confirmado por fuentes oficiales.

Lanzado Sep 6, 2025 desde Taiyuan Satellite Launch Center

Loading…

Próximos Pases (próximas 24 horas)

TLE

ActualizadoSource: Space-Track

Época: Sep 13, 2026, 18:21 UTC

1 65549U 25199F   26256.76525608  .00000354  00000-0  60271-4 0  9997
2 65549  86.0166 350.7176 0065975 240.8801 118.5796 14.64434090 54441

Sigue CZ-6A Y12 STAGE 2 en tiempo real con AllMySat

Download on the App Store